NOZ328 ENGM-ENTC

Flight info

Callsign NOZ328
Flight time 1h 32m
Altitude 37000
Route RIBBE DCT GIGNI DCT SOMUB DCT PENNO DCT ATWEG
Aircraft B738/M-SDE2E3FGHIRWXY/LB1

Departure

Time 2026-05-04 10:32
Airport Oslo-Gardermoen International Airport (ENGM)

Arrival

Time 2026-05-04 12:05
Airport Tromsø Airport (ENTC)
Time Latitude Longitude Altitude Speed Heading
2026-05-04 09:56 60.19545 11.09579 680 ft 0 kts 196°
2026-05-04 10:23 60.19560 11.09588 678 ft 4 kts 196°
2026-05-04 10:25 60.19604 11.09614 680 ft 0 kts 196°
2026-05-04 10:27 60.19606 11.09592 679 ft 4 kts 296°
2026-05-04 10:27 60.19647 11.09513 680 ft 12 kts 312°
2026-05-04 10:27 60.19687 11.09368 680 ft 12 kts 287°
2026-05-04 10:27 60.19710 11.09209 677 ft 12 kts 285°
2026-05-04 10:28 60.19737 11.09021 678 ft 15 kts 286°
2026-05-04 10:28 60.19767 11.08803 674 ft 17 kts 286°
2026-05-04 10:28 60.19755 11.08669 675 ft 10 kts 214°
2026-05-04 10:28 60.19689 11.08624 677 ft 10 kts 197°
2026-05-04 10:29 60.19624 11.08587 677 ft 10 kts 196°
2026-05-04 10:29 60.19551 11.08544 678 ft 12 kts 196°
2026-05-04 10:29 60.19460 11.08491 679 ft 17 kts 196°
2026-05-04 10:29 60.19333 11.08417 679 ft 16 kts 196°
2026-05-04 10:30 60.19243 11.08350 676 ft 13 kts 221°
2026-05-04 10:30 60.19243 11.08170 672 ft 16 kts 287°
2026-05-04 10:30 60.19276 11.07955 669 ft 15 kts 287°
2026-05-04 10:30 60.19306 11.07843 668 ft 8 kts 353°
2026-05-04 10:31 60.19358 11.07871 668 ft 10 kts 17°
2026-05-04 10:31 60.19622 11.08020 670 ft 75 kts 15°
2026-05-04 10:32 60.26680 11.11358 2589 ft 232 kts 350°
2026-05-04 10:33 60.28340 11.10863 2897 ft 254 kts 346°
2026-05-04 10:33 60.30172 11.10230 3342 ft 272 kts 347°
2026-05-04 10:33 60.31996 11.09611 4509 ft 260 kts 347°
2026-05-04 10:33 60.33766 11.09078 5490 ft 259 kts 350°
2026-05-04 10:34 60.35608 11.09477 6112 ft 276 kts 15°
2026-05-04 10:34 60.37364 11.10874 7121 ft 270 kts 18°
2026-05-04 10:34 60.39162 11.12414 7027 ft 286 kts 20°
2026-05-04 10:34 60.40955 11.14032 7157 ft 280 kts 20°
2026-05-04 10:35 60.42724 11.15664 7107 ft 280 kts 19°
2026-05-04 10:35 60.44498 11.17252 7044 ft 278 kts 19°
2026-05-04 10:35 60.46269 11.18821 7008 ft 277 kts 19°
2026-05-04 10:35 60.48036 11.20386 7423 ft 279 kts 19°
2026-05-04 10:36 60.49835 11.21957 8136 ft 283 kts 19°
2026-05-04 10:36 60.51651 11.23544 8878 ft 286 kts 18°
2026-05-04 10:36 60.53497 11.25156 9609 ft 291 kts 18°
2026-05-04 10:36 60.55378 11.26803 10081 ft 304 kts 18°
2026-05-04 10:37 60.57367 11.28540 10318 ft 325 kts 18°
2026-05-04 10:37 60.59508 11.30422 10833 ft 336 kts 19°
2026-05-04 10:37 60.61646 11.32311 11460 ft 342 kts 18°
2026-05-04 10:37 60.63872 11.34282 12164 ft 347 kts 18°
2026-05-04 10:39 60.77935 11.44772 16116 ft 364 kts 355°
2026-05-04 10:39 60.80483 11.45003 16780 ft 369 kts 354°
2026-05-04 10:39 60.83064 11.45241 17449 ft 374 kts 354°
2026-05-04 10:40 60.85685 11.45510 18127 ft 380 kts 354°
2026-05-04 10:40 60.88352 11.45807 18627 ft 387 kts 354°
2026-05-04 10:40 60.91052 11.46131 19238 ft 390 kts 354°
2026-05-04 10:40 60.93775 11.46469 19685 ft 394 kts 354°
2026-05-04 10:41 60.96520 11.46813 19670 ft 395 kts 354°
2026-05-04 10:41 60.99259 11.47163 19676 ft 393 kts 354°
2026-05-04 10:41 61.01990 11.47508 19680 ft 394 kts 354°
2026-05-04 10:41 61.04724 11.47850 19670 ft 394 kts 354°
2026-05-04 10:42 61.07456 11.48191 19675 ft 393 kts 354°
2026-05-04 10:42 61.10180 11.48363 19674 ft 390 kts 351°
2026-05-04 10:42 61.12894 11.48366 19671 ft 390 kts 350°
2026-05-04 10:42 61.15607 11.48323 19670 ft 390 kts 350°
2026-05-04 10:43 61.18323 11.48282 19676 ft 391 kts 350°
2026-05-04 10:44 61.37307 11.48299 19671 ft 390 kts 351°
2026-05-04 10:45 61.40019 11.48309 19677 ft 390 kts 351°
2026-05-04 10:45 61.42728 11.48317 19679 ft 389 kts 351°
2026-05-04 10:45 61.45439 11.48325 19704 ft 390 kts 351°
2026-05-04 10:45 61.48156 11.48331 19681 ft 391 kts 351°
2026-05-04 10:46 61.50876 11.48340 19669 ft 391 kts 351°
2026-05-04 10:46 61.53597 11.48349 19678 ft 390 kts 351°
2026-05-04 10:46 61.56312 11.48359 19689 ft 391 kts 351°
2026-05-04 10:46 61.59029 11.48367 19667 ft 391 kts 351°
2026-05-04 10:47 61.61746 11.48381 19670 ft 390 kts 351°
2026-05-04 10:47 61.64461 11.48391 19659 ft 390 kts 351°
2026-05-04 10:47 61.67171 11.48398 19676 ft 389 kts 351°
2026-05-04 10:47 61.69878 11.48404 19668 ft 389 kts 351°
2026-05-04 10:49 61.88835 11.48462 19679 ft 386 kts 351°
2026-05-04 10:49 61.91520 11.48472 19673 ft 385 kts 351°
2026-05-04 10:50 61.94194 11.48483 19687 ft 383 kts 351°
2026-05-04 10:51 62.12872 11.51348 19710 ft 390 kts 359°
2026-05-04 10:52 62.15556 11.52001 19680 ft 386 kts 359°
2026-05-04 10:52 62.18218 11.52637 19722 ft 386 kts 359°
2026-05-04 10:52 62.20901 11.53259 19735 ft 391 kts 359°
2026-05-04 10:54 62.39775 11.57625 19747 ft 394 kts 359°
2026-05-04 10:54 62.42497 11.58257 19751 ft 393 kts 359°
2026-05-04 10:56 62.61411 11.62705 19656 ft 390 kts 359°
2026-05-04 10:56 62.64114 11.63342 19658 ft 391 kts 359°
2026-05-04 10:56 62.66784 11.63972 19696 ft 392 kts 360°
2026-05-04 10:57 62.68619 11.64405 19700 ft 395 kts 360°
2026-05-04 10:57 62.71381 11.65054 20044 ft 402 kts 360°
2026-05-04 10:57 62.75073 11.65931 20958 ft 404 kts 359°
2026-05-04 10:57 62.77886 11.66601 21509 ft 409 kts 359°
2026-05-04 10:58 62.80737 11.67279 22033 ft 415 kts 359°
2026-05-04 10:58 62.83632 11.67969 22566 ft 421 kts 358°
2026-05-04 10:58 62.86564 11.68671 23077 ft 426 kts 358°
2026-05-04 10:58 62.88528 11.69142 23391 ft 430 kts 358°
2026-05-04 10:59 62.91506 11.69860 23843 ft 433 kts 358°
2026-05-04 10:59 62.94512 11.70591 24331 ft 435 kts 358°
2026-05-04 10:59 62.97526 11.71323 24883 ft 436 kts 359°
2026-05-04 10:59 63.00545 11.72058 25366 ft 438 kts 359°
2026-05-04 11:00 63.03588 11.72797 25773 ft 442 kts 359°
2026-05-04 11:01 63.25542 11.78177 28592 ft 464 kts 359°
2026-05-04 11:02 63.28756 11.78972 28970 ft 466 kts 359°
2026-05-04 11:02 63.31984 11.79772 29338 ft 468 kts 359°
2026-05-04 11:05 63.76697 12.13429 33975 ft 481 kts 15°
2026-05-04 11:06 63.79854 12.15956 34220 ft 481 kts 15°
2026-05-04 11:06 63.83015 12.18492 34450 ft 482 kts 15°
2026-05-04 11:06 63.86168 12.21029 34700 ft 482 kts 15°
2026-05-04 11:06 63.89326 12.23576 34895 ft 482 kts 15°
2026-05-04 11:08 64.11408 12.41567 36619 ft 481 kts 16°
2026-05-04 11:10 64.33462 12.59841 36659 ft 478 kts 16°
2026-05-04 11:12 64.58357 12.80842 36623 ft 476 kts 17°
2026-05-04 11:12 64.64594 12.86168 36617 ft 478 kts 17°
2026-05-04 11:13 64.70848 12.91534 36611 ft 480 kts 17°
2026-05-04 11:13 64.77126 12.96949 36612 ft 482 kts 17°
2026-05-04 11:14 64.83381 13.02371 36598 ft 483 kts 17°
2026-05-04 11:16 65.08622 13.24529 36584 ft 484 kts 18°
2026-05-04 11:16 65.14912 13.30120 36595 ft 482 kts 18°
2026-05-04 11:17 65.21190 13.35728 36546 ft 481 kts 18°
2026-05-04 11:19 65.46191 13.58350 36557 ft 480 kts 18°
2026-05-04 11:19 65.52421 13.64060 36563 ft 479 kts 18°
2026-05-04 11:20 65.58652 13.69798 36550 ft 479 kts 18°
2026-05-04 11:20 65.64882 13.75566 36567 ft 480 kts 18°
2026-05-04 11:22 65.89862 13.98997 36547 ft 481 kts 19°
2026-05-04 11:23 65.96105 14.04930 36563 ft 482 kts 19°
2026-05-04 11:25 66.17941 14.25929 36530 ft 480 kts 19°
2026-05-04 11:25 66.24152 14.31973 36554 ft 479 kts 19°
2026-05-04 11:27 66.51979 14.59449 36528 ft 478 kts 19°
2026-05-04 11:28 66.58158 14.65641 36541 ft 478 kts 19°
2026-05-04 11:28 66.64345 14.71875 36545 ft 478 kts 19°
2026-05-04 11:29 66.70524 14.78133 36547 ft 479 kts 19°
2026-05-04 11:29 66.76695 14.84418 36535 ft 478 kts 19°
2026-05-04 11:33 67.19456 15.28922 36548 ft 477 kts 20°
2026-05-04 11:33 67.25590 15.35446 36544 ft 477 kts 20°
2026-05-04 11:34 67.31722 15.42005 36550 ft 477 kts 20°
2026-05-04 11:34 67.37858 15.48605 36544 ft 477 kts 20°
2026-05-04 11:35 67.43992 15.55240 36366 ft 477 kts 20°
2026-05-04 11:35 67.47043 15.58555 36040 ft 472 kts 20°
2026-05-04 11:35 67.50019 15.61798 35667 ft 467 kts 20°
2026-05-04 11:36 67.53004 15.65059 35286 ft 464 kts 20°
2026-05-04 11:36 67.55972 15.68310 34891 ft 461 kts 20°
2026-05-04 11:36 67.58918 15.71545 34483 ft 458 kts 20°
2026-05-04 11:36 67.61853 15.74776 34077 ft 456 kts 20°
2026-05-04 11:37 67.64775 15.78001 33667 ft 455 kts 20°
2026-05-04 11:37 67.67683 15.81219 33219 ft 453 kts 21°
2026-05-04 11:37 67.70575 15.84430 32780 ft 450 kts 21°
2026-05-04 11:37 67.73446 15.87626 32386 ft 446 kts 21°
2026-05-04 11:38 67.76295 15.90806 32003 ft 442 kts 21°
2026-05-04 11:38 67.79115 15.93962 31622 ft 439 kts 21°
2026-05-04 11:38 67.81914 15.97101 31228 ft 435 kts 21°
2026-05-04 11:38 67.84691 16.00225 30855 ft 432 kts 21°
2026-05-04 11:39 67.87448 16.03332 30487 ft 429 kts 21°
2026-05-04 11:39 67.90185 16.06425 30108 ft 427 kts 21°
2026-05-04 11:40 68.05655 16.27739 27729 ft 406 kts 27°
2026-05-04 11:41 68.08105 16.31390 27346 ft 402 kts 27°
2026-05-04 11:41 68.10539 16.35002 26997 ft 397 kts 27°
2026-05-04 11:41 68.12946 16.38569 26604 ft 394 kts 27°
2026-05-04 11:41 68.15335 16.42106 26228 ft 390 kts 27°
2026-05-04 11:42 68.17707 16.45592 25858 ft 387 kts 26°
2026-05-04 11:42 68.20070 16.49025 25509 ft 384 kts 27°
2026-05-04 11:42 68.22398 16.52501 25159 ft 381 kts 28°
2026-05-04 11:42 68.24703 16.55979 24808 ft 379 kts 27°
2026-05-04 11:43 68.26996 16.59431 24469 ft 376 kts 28°
2026-05-04 11:43 68.29271 16.62852 24126 ft 373 kts 28°
2026-05-04 11:43 68.31532 16.66256 23773 ft 371 kts 28°
2026-05-04 11:43 68.33757 16.69607 23440 ft 370 kts 28°
2026-05-04 11:44 68.36000 16.72994 23101 ft 368 kts 27°
2026-05-04 11:44 68.38234 16.76373 22676 ft 366 kts 28°
2026-05-04 11:44 68.40447 16.79728 22290 ft 363 kts 28°
2026-05-04 11:44 68.42615 16.83021 21969 ft 359 kts 28°
2026-05-04 11:45 68.44785 16.86325 21616 ft 356 kts 28°
2026-05-04 11:45 68.46965 16.89651 21267 ft 353 kts 28°
2026-05-04 11:45 68.49067 16.92866 20936 ft 351 kts 28°
2026-05-04 11:45 68.51189 16.96117 20593 ft 348 kts 28°
2026-05-04 11:46 68.53294 16.99350 20270 ft 346 kts 28°
2026-05-04 11:46 68.55380 17.02560 19950 ft 344 kts 28°
2026-05-04 11:46 68.57457 17.05765 19615 ft 342 kts 28°
2026-05-04 11:46 68.59521 17.08954 19308 ft 340 kts 28°
2026-05-04 11:47 68.60886 17.11059 19078 ft 339 kts 28°
2026-05-04 11:47 68.62933 17.14233 18745 ft 337 kts 28°
2026-05-04 11:47 68.64995 17.17432 18441 ft 335 kts 28°
2026-05-04 11:47 68.67016 17.20586 18135 ft 333 kts 28°
2026-05-04 11:48 68.69006 17.23698 17823 ft 333 kts 28°
2026-05-04 11:48 68.71020 17.26850 17444 ft 332 kts 28°
2026-05-04 11:48 68.73015 17.29979 17086 ft 329 kts 28°
2026-05-04 11:48 68.74997 17.33096 16816 ft 326 kts 28°
2026-05-04 11:49 68.76964 17.36192 16461 ft 325 kts 28°
2026-05-04 11:49 68.78916 17.39270 16170 ft 322 kts 28°
2026-05-04 11:49 68.80862 17.42344 15855 ft 321 kts 28°
2026-05-04 11:49 68.82790 17.45399 15542 ft 318 kts 28°
2026-05-04 11:50 68.84704 17.48435 15237 ft 316 kts 29°
2026-05-04 11:50 68.86599 17.51449 14938 ft 314 kts 29°
2026-05-04 11:50 68.88488 17.54459 14638 ft 311 kts 29°
2026-05-04 11:50 68.90360 17.57447 14338 ft 309 kts 29°
2026-05-04 11:51 68.92218 17.60418 14047 ft 307 kts 29°
2026-05-04 11:51 68.94063 17.63375 13753 ft 305 kts 29°
2026-05-04 11:51 68.95899 17.66323 13467 ft 303 kts 29°
2026-05-04 11:51 68.97718 17.69250 13147 ft 301 kts 29°
2026-05-04 11:52 68.99527 17.72165 12837 ft 299 kts 29°
2026-05-04 11:52 69.01316 17.75053 12548 ft 296 kts 29°
2026-05-04 11:52 69.03093 17.77929 12243 ft 294 kts 29°
2026-05-04 11:52 69.04857 17.80788 11940 ft 292 kts 29°
2026-05-04 11:53 69.06587 17.83700 11664 ft 290 kts 36°
2026-05-04 11:53 69.08104 17.87364 11402 ft 287 kts 44°
2026-05-04 11:53 69.09511 17.91313 11096 ft 286 kts 45°
2026-05-04 11:53 69.10895 17.95280 10802 ft 284 kts 45°
2026-05-04 11:55 69.20413 18.22160 8835 ft 275 kts 45°
2026-05-04 11:55 69.21787 18.26016 8560 ft 276 kts 45°
2026-05-04 11:56 69.23153 18.29856 8305 ft 278 kts 45°
2026-05-04 11:56 69.24516 18.33695 8146 ft 275 kts 45°
2026-05-04 11:56 69.25838 18.37421 8041 ft 269 kts 45°
2026-05-04 11:56 69.27156 18.41138 7821 ft 267 kts 45°
2026-05-04 11:57 69.28465 18.44843 7565 ft 267 kts 46°
2026-05-04 11:57 69.29774 18.48555 7295 ft 267 kts 46°
2026-05-04 11:57 69.31069 18.52229 7169 ft 261 kts 46°
2026-05-04 11:57 69.32362 18.55730 7034 ft 255 kts 39°
2026-05-04 11:58 69.33787 18.58613 6940 ft 248 kts 34°
2026-05-04 11:58 69.35208 18.61271 6844 ft 242 kts 34°
2026-05-04 11:58 69.36579 18.63854 6771 ft 230 kts 34°
2026-05-04 11:58 69.37877 18.66341 6655 ft 221 kts 34°
2026-05-04 11:59 69.39134 18.68778 6423 ft 216 kts 35°
2026-05-04 11:59 69.40359 18.71165 6218 ft 212 kts 35°
2026-05-04 11:59 69.41562 18.73514 5995 ft 208 kts 34°
2026-05-04 11:59 69.42879 18.75067 5768 ft 205 kts
2026-05-04 12:00 69.44273 18.75687 5585 ft 202 kts 13°
2026-05-04 12:00 69.45629 18.76643 5385 ft 200 kts 15°
2026-05-04 12:00 69.46972 18.77588 5195 ft 197 kts 14°
2026-05-04 12:00 69.48284 18.78483 4997 ft 190 kts 14°
2026-05-04 12:01 69.49539 18.79327 4910 ft 185 kts 14°
2026-05-04 12:01 69.50808 18.80177 4584 ft 188 kts 14°
2026-05-04 12:02 69.58321 18.85200 2518 ft 163 kts 14°
2026-05-04 12:03 69.59383 18.85910 2222 ft 152 kts 15°
2026-05-04 12:03 69.60401 18.86586 1960 ft 151 kts 14°
2026-05-04 12:03 69.61419 18.87295 1715 ft 150 kts 15°
2026-05-04 12:03 69.62439 18.87942 1461 ft 149 kts 11°
2026-05-04 12:04 69.63460 18.88515 1175 ft 150 kts 15°
2026-05-04 12:04 69.64460 18.89304 898 ft 149 kts 13°
2026-05-04 12:04 69.65473 18.89977 579 ft 153 kts 13°
2026-05-04 12:04 69.66497 18.90658 293 ft 147 kts 13°
2026-05-04 12:05 69.67466 18.91321 43 ft 137 kts 13°
2026-05-04 12:05 69.68249 18.91839 30 ft 85 kts 13°
2026-05-04 12:05 69.68609 18.92079 23 ft 24 kts 14°
2026-05-04 12:05 69.68734 18.92130 22 ft 14 kts 338°
2026-05-04 12:06 69.68773 18.91883 19 ft 14 kts 278°
2026-05-04 12:06 69.68777 18.91765 20 ft 5 kts 259°
2026-05-04 12:06 69.68751 18.91707 19 ft 5 kts 193°
2026-05-04 12:06 69.68715 18.91682 19 ft 6 kts 194°
2026-05-04 12:07 69.68663 18.91644 19 ft 10 kts 194°
2026-05-04 12:07 69.68584 18.91586 23 ft 13 kts 194°
2026-05-04 12:07 69.68497 18.91529 25 ft 13 kts 189°
2026-05-04 12:07 69.68409 18.91499 25 ft 13 kts 182°
2026-05-04 12:08 69.68323 18.91492 26 ft 12 kts 189°
2026-05-04 12:08 69.68242 18.91438 28 ft 12 kts 193°
2026-05-04 12:08 69.68163 18.91385 33 ft 11 kts 192°
2026-05-04 12:08 69.68087 18.91335 34 ft 11 kts 193°
2026-05-04 12:09 69.68013 18.91286 34 ft 11 kts 192°
2026-05-04 12:09 69.67943 18.91242 34 ft 10 kts 192°
2026-05-04 12:09 69.67910 18.91178 32 ft 6 kts 268°
2026-05-04 12:09 69.67917 18.91063 34 ft 6 kts 284°
2026-05-04 12:10 69.67926 18.90952 34 ft 6 kts 282°
2026-05-04 12:10 69.67930 18.90906 32 ft 1 kts 283°
2026-05-04 12:10 69.67931 18.90893 32 ft 0 kts 283°